Find Otter

NORAD ID: 62623 Int'l Des: 2025-009 Owner: USNPS Country: US operational
LEOCIRCULARRETROGRADESSO

实时位置

正在加载3D地球...

关于 Otter

正在加载描述...

即将过境

Passes for default location (London). Set your location on the main map for personalized predictions.

高度历史

Loading altitude history...

两行轨道根数

1 62623U 25009Q 26106.50224606 .00005971 00000-0 21662-3 0 9997
2 62623 97.4039 188.9402 0005581 155.0572 205.0939 15.28696100 69493
Epoch: Apr 16, 2026 • Age: 23 hours

当前状态

高度 497.8 km
速度 7.61 km/s
星下点 -48.76°S, 9.87°W
发射日期 Jan 14, 2025
运行时间 1.2 years
类型 other

技术详情

分类 Payload
质量 10.00 kg
干质量 10.00 kg
总质量 10.00 kg
长度 0.30 m
直径 0.20 m
跨度 0.30 m
形状 Box+2 pan
制造商 USNPS
平台类型 Cubesat 6U
阶段状态 In Orbit
所有者/国家 USNPS/US

Most Searched